Home > Weather > Palikir > Past weeks

Flag for Micronesia Weather for the Past 2 Weeks in Palikir, Pohnpei, Micronesia

Now
78 °F

Sprinkles. Mostly cloudy.


Feels Like: 81 °F
Forecast: 81 / 84 °F
Wind: 9 mph from East

Location: Pohnpei

Current Time: Feb 7, 2016 at 6:25:53 AM

Latest Report: Feb 7, 2016 at 5:53 AM


Visibility: 12 mi

Pressure: 29.84 "Hg

Humidity: 90%

Dew point: 75 °F

Location of PalikirLocation

Historic Weather in Palikir — Graph

°F

Palikir Temperature Yesterday

Maximum temperature yesterday: 85 °F (at 10:53 AM)
Minimum temperature yesterday: 80 °F (at 1:53 PM)
Average temperature yesterday: 82 °F

High & Low Weather Summary for the Past Weeks

 TemperatureHumidityPressure
High87 °F (Feb 2, 12:51 PM)96% (Jan 23, 5:50 AM)29.98 "Hg (Jan 23, 5:50 AM)
Low76 °F (Feb 4, 3:52 AM)62% (Jan 29, 12:51 PM)29.76 "Hg (Feb 5, 2:51 PM)
Average82 °F77%29.87 "Hg
* Reported Jan 23 3:53 AM — Feb 7 3:52 AM, Palikir, Weather by CustomWeather, © 2016

Note: Actual official high and low records may vary slightly from our data, if they occured in-between our weather recording intervals... More about our weather records

Advertising

Palikir Weather History for the Previous 24 Hours

 ConditionsComfort  
Time TempWeatherWind HumidityBarometerVisibility
3:52 AM
Sun, Feb 7
81 °FMostly cloudy.6 mph92%29.82 "Hg15 mi
2:50 AM80 °FPassing clouds.7 mph92%29.83 "Hg15 mi
1:50 AM81 °FPassing clouds.7 mph88%29.84 "Hg15 mi
12:52 AM81 °FPassing clouds.10 mph92%29.85 "Hg15 mi
11:52 PM
Sat, Feb 6
82 °FPartly cloudy.8 mph88%29.85 "Hg15 mi
10:52 PM82 °FPartly cloudy.6 mph83%29.86 "Hg15 mi
9:51 PM82 °FPartly cloudy.7 mph79%29.86 "Hg15 mi
8:52 PM82 °FPartly cloudy.13 mph76%29.85 "Hg15 mi
7:51 PM82 °FPartly cloudy.7 mph77%29.83 "Hg15 mi
6:52 PM82 °FPartly cloudy.8 mph75%29.80 "Hg15 mi
5:53 PM83 °FBroken clouds.5 mph79%29.80 "Hg15 mi
4:55 PM84 °FBroken clouds.10 mph76%29.78 "Hg15 mi
3:50 PM84 °FMostly cloudy.8 mph78%29.78 "Hg15 mi
2:53 PM83 °FMostly cloudy.7 mph79%29.77 "Hg15 mi
1:53 PM80 °FSprinkles. Mostly cloudy.8 mph86%29.80 "Hg10 mi
12:52 PM84 °FSprinkles. Cloudy.12 mph76%29.82 "Hg14 mi
11:51 AM83 °FMore clouds than sun.5 mph79%29.85 "Hg15 mi
10:53 AM85 °FScattered clouds.8 mph69%29.86 "Hg15 mi
9:53 AM85 °FPassing clouds.5 mph74%29.86 "Hg15 mi
8:50 AM83 °FPassing clouds.7 mph75%29.85 "Hg15 mi
7:51 AM82 °FScattered clouds.5 mph76%29.83 "Hg15 mi
6:51 AM81 °FMostly cloudy.9 mph78%29.81 "Hg15 mi
Weather by CustomWeather, © 2016

See weather overviewHow to use our weather pages